Regional Weather Roundup
Issued by NWS Grand Forks, ND

Home | Current Version | Previous Version | Text Only | Print | Product List | Glossary On
Versions: 1 2 3 4 5 6 7 8 9 10 11 12 13 14 15 16 17 18 19 20 21 22 23 24 25 26 27 28 29 30 31 32 33 34 35 36 37 38 39 40 41 42 43 44 45 46 47 48 49 50
000
ASUS43 KFGF 311410
RWRFGF
PRAIRIE TO PINES  WEATHER ROUNDUP
NATIONAL WEATHER SERVICE EASTERN NORTH DAKOTA/GRAND FORKS ND
900 AM CDT FRI JUL 31 2015

 **SATELLITE DATA USED TO AUGMENT SKY COVER AT AUTOMATED STATIONS**
 *****  WEATHER ACROSS EASTERN NORTH DAKOTA  *****

CITY           SKY/WX    TMP DP  RH WIND       PRES   REMARKS
GRAND FORKS    MOSUNNY   69  55  60 W13       30.06S
GRAND FRKS AFB SUNNY     69  55  60 NW12      30.07S
GRAND FRKS NWS   N/A     66 N/A N/A W3          N/A
DEVILS LAKE    PTSUNNY   66  50  55 NW15      30.11S
FARGO          SUNNY     68  55  63 W15       30.10R
WAHPETON ARPT  SUNNY     64  52  63 NW8       30.12S
$$

 ***** WEATHER ACROSS CENTRAL AND WESTERN NORTH DAKOTA  *****

CITY           SKY/WX    TMP DP  RH WIND       PRES   REMARKS
BISMARCK       MOSUNNY   64  53  67 SW5       30.17F
MINOT          SUNNY     67  52  58 W7        30.14S
JAMESTOWN      SUNNY     67  54  63 W8        30.14S
MINOT AFB      SUNNY     70  55  59 W5        30.13S
GARRISON         N/A     66  57  72 CALM      30.15S
WILLISTON      SUNNY     65  52  62 SW7       30.16S
DICKINSON      SUNNY     71  52  50 W10       30.18S
HETTINGER      SUNNY     65  52  62 CALM      30.23S
$$

 *****  OTHER AIRPORT OBSERVATIONS IN OUR AREA  *****

CITY           SKY/WX    TMP DP  RH WIND       PRES   REMARKS
WALHALLA       FAIR      68  54  60 MISG      30.06R
GRAFTON AIRPOR FAIR      66  54  63 W14G20    30.06S
VALLEY CITY AR FAIR      68  55  64 W9        30.14S
CANDO          NOT AVBL
CAVALIER APRT  FAIR      66  54  63 W9        30.05S
GWINNER        FAIR      72  54  53 W7        30.14S
SHEYENNE NWR     N/A     69  55  60 W7        29.95
ROLLA          FAIR      66  52  59 NW12      30.13S
 ***** THE ABOVE OBSERVATIONS ARE NON NWS ARE NOT QUALITY
       CONTROLLED AND MAY MIS-REPORT RAIN FOR SNOW...
$$

  *****  WEATHER ACROSS NORTHERN MINNESOTA  *****

CITY           SKY/WX    TMP DP  RH WIND       PRES   REMARKS
FLAG ISLAND    SUNNY     63  55  77 W14       29.95S
WARROAD        SUNNY     63  57  82 W10G18    30.00R
ROSEAU           N/A     63  55  77 W9G16     30.01R
HALLOCK        SUNNY     66  54  63 NW10      30.03S
THF RVR FALLS  SUNNY     64  52  63 W9        30.05S
BAUDETTE       SUNNY     65  54  67 W12       29.98R
WASKISH        SUNNY     66  55  68 W15       30.01S
CROOKSTON      SUNNY     66  55  68 NW10      30.07S HAZE
$$
  *****  WEATHER ACROSS CENTRAL AND WEST MINNESOTA  *****

CITY           SKY/WX    TMP DP  RH WIND       PRES   REMARKS
FOSSTON        SUNNY     64  52  63 W12       30.07S
BEMIDJI        SUNNY     65  53  65 W12       30.05R
PARK RAPIDS    SUNNY     66  52  60 W14       30.08R
ELBOW LAKE     FAIR      64  57  77 W5        30.12S
WADENA         SUNNY     66  54  63 NW8       30.10R
DETROIT LAKES  SUNNY     66  52  59 NW9       30.11R
MOORHEAD       SUNNY     68  55  64 W8        30.10S
FERGUS FALLS   SUNNY     63  55  77 NW5       30.12S
MORRIS MN      SUNNY     68  59  73 NW8       30.12S
STAPLES        SUNNY     66  54  63 W9        30.09S
$$
  *****  WEATHER ELSEWHERE ACROSS MINNESOTA  *****

CITY           SKY/WX    TMP DP  RH WIND       PRES   REMARKS
DULUTH         SUNNY     67  52  58 NW15G23   29.98R
INTRNTL FALLS  SUNNY     64  57  78 W9        29.96R
ELY            MOSUNNY   63  54  72 NW12G20   29.94S
CLOQUET        SUNNY     66  52  59 W10G21    30.00S
WHEATON        SUNNY     66  55  68 W6        30.14S
BRAINERD       SUNNY     65  52  62 W9        30.07R
HIBBING        SUNNY     66  54  65 W12       29.99R
ALEXANDRIA     SUNNY     67  55  65 W8        30.13S
SAINT CLOUD    SUNNY     70  53  54 W13       30.09R
MINNEAPOLIS    SUNNY     73  53  49 NW14      30.08R
$$

  *****  WEATHER ACROSS SOUTH DAKOTA  *****

CITY           SKY/WX    TMP DP  RH WIND       PRES   REMARKS
SIOUX FALLS    MOSUNNY   71  62  73 N3        30.17S
BROOKINGS      SUNNY     68  59  73 N3        30.19S
WATERTOWN      SUNNY     71  54  54 NW3       30.17S
HURON          SUNNY     71  57  61 NE3       30.16S
SISSETON         N/A     71  58  63 N7        30.13R
ABERDEEN       SUNNY     66  58  75 SW6       30.16S
MITCHELL       SUNNY     70  61  73 CALM      30.17S
PIERRE         SUNNY     70  56  61 E6        30.17S
MOBRIDGE       SUNNY     68  61  78 CALM      30.16F
RAPID CITY     SUNNY     66  51  58 N10       30.23R
$$

  *****  SOME WEATHER IN NEARBY STATES *****

CITY           SKY/WX    TMP DP  RH WIND       PRES   REMARKS
GLASGOW MT     SUNNY     67  49  52 SE8       30.17S
GREAT FALLS MT SUNNY     66  43  43 SW12      30.21R
CHEYENNE WY    SUNNY     68  54  60 NW5       30.39S
SCOTTSBLUFF NE SUNNY     66  59  78 E5        30.28R
OMAHA NE       MOSUNNY   79  66  64 CALM      30.14S
DES MOINES IA  MOSUNNY   77  65  66 W6        30.13F
DAVENPORT IA   SUNNY     74  67  78 NW8       30.09S
CHICAGO IL     PTSUNNY   75  63  66 W12       30.01F
EAU CLAIRE WI  SUNNY     71  55  56 NW9       30.03R
LA CROSSE WI   SUNNY     75  57  53 W12       30.04R
$$

  *****  SOME NATIONAL WEATHER *****

CITY           SKY/WX    TMP DP  RH WIND       PRES   REMARKS
LA GUARDIA NY  SUNNY     81  60  48 NW8       29.87S
RALEIGH NC     MOSUNNY   82  63  52 NE6       29.99S
ATLANTA GA     MOSUNNY   82  69  64 NE9       29.99F
NEW ORLEANS LA PTSUNNY   84  70  62 NE10      29.97R
OKLAHOMA CITY  PTSUNNY   79  73  82 E7        30.16R
ALBUQUERQUE NM PTSUNNY   69  61  75 SE6       30.37R
SALT LAKE CITY MOSUNNY   67  36  31 E5        30.25R
LOS ANGELES CA CLOUDY    68  65  90 W5        30.03R
BOISE ID       SUNNY     67  40  37 CALM      30.17R
SEATTLE WA     SUNNY     67  51  56 CALM      30.09R
$$

*** WEATHER ACROSS MANITOBA...SASKATCHEWAN AND ONTARIO ***
                ***ONTARIO***

CITY           SKY/WX    TMP DP  RH WIND       PRES   REMARKS
GERALDTON      PTSUNNY   63  57  82 NW8G17    29.74R
THUNDER BAY    PTSUNNY   63  57  82 W9        29.84R
SIOUX LOOKOUT  PTSUNNY   63  55  77 W13       29.87S
TORONTO        MOSUNNY   77  57  50 SW6       29.87S
BIG TROUT LK   CLOUDY    59  50  72 NW20G30   29.64S
PICKLE LAKE    PTSUNNY   63  54  72 W12G20    29.77S
DRYDEN         CLOUDY    59  55  88 W10G18    29.91R
KENORA         PTSUNNY   61  57  88 W8        29.94S
$$
                *** MANITOBA***

CITY           SKY/WX    TMP DP  RH WIND       PRES   REMARKS
BRANDON        SUNNY     63  55  77 NW10      30.10R
DAUPHIN        SUNNY     63  55  77 W13G18    30.04S
ISLAND LAKE    MOSUNNY   66  55  68 NW8       29.81R
PILOT MOUND      N/A     64  54  68 NW8         N/A
THE PAS        MOSUNNY   63  55  77 W13       29.96S
THOMPSON       MOSUNNY   63  54  72 NW8       29.83S
WINNIPEG       MOSUNNY   64  59  82 W13       30.00F
LYNN LAKE      PTSUNNY   61  55  82 NW10      29.90S
CHURCHILL      PTSUNNY   55  50  82 NW18G24   29.67S
GILLAM         MOSUNNY   61  50  67 N16G23    29.74S
$$
                ***SASKATCHEWAN***

CITY           SKY/WX    TMP DP  RH WIND       PRES   REMARKS
ESTEVAN        NOT AVBL
KINDERSLEY     MOSUNNY   61  52  72 N3        30.19R
LLOYDMINSTER   MOSUNNY   61  52  72 SW6       30.14F
PRINCE ALBERT  MOSUNNY   61  52  72 W9        30.11R
REGINA         MOSUNNY   63  54  72 NW5       30.18S
YORKTON        SUNNY     63  54  72 W10       30.11R
N. BATTLEFORD  PTSUNNY   59  50  72 CALM      30.17F
LA RONGE       MOSUNNY   63  54  72 W9        30.05S
SASKATOON      MOSUNNY   59  50  72 W7        30.18R
SWIFT CURRENT  SUNNY     63  54  72 S7        30.18F
$$
NOTE: THESE ARE AUTOMATED STATIONS WITH LIMITED QUALITY CONTROL
      "FAIR" INDICATES FEW OR NO CLOUDS BELOW 12,000 FEET WITH NO
      SIGNIFICANT WEATHER AND/OR OBSTRUCTIONS TO VISIBILITY.
      SKY/WX - SKY CONDITION AND SIGNIFICANT WEATHER.
      TMP - AIR TEMPERATURE.    DP   - DEWPOINT TEMPERATURE.
      RH  - RELATIVE HUMIDITY.  PRES - PRESSURE.
      HX  - HEAT INDEX.         WCI  - WIND CHILL INDEX.
$


USA.gov is the U.S. government's official web portal to all federal, state and local government web resources and services.